Regional Weather Roundup
Issued by NWS

Home | Current Version | Previous Version | Graphics & Text | Print | Product List | Glossary On
Versions: 1 2 3 4 5 6 7 8 9 10 11 12 13 14 15 16 17 18 19 20 21 22 23 24 25 26 27 28 29 30 31 32 33 34 35 36 37 38 39 40 41 42 43 44 45 46 47 48 49 50
000
ASUS43 KLSX 231759
RWRMO

WEATHER SUMMARY FOR MISSOURI
NATIONAL WEATHER SERVICE SPRINGFIELD MO
100 PM CDT SAT MAY 23 2015

NOTE: "FAIR" INDICATES FEW OR NO CLOUDS BELOW 12,000 FEET WITH NO
       SIGNIFICANT WEATHER AND/OR OBSTRUCTIONS TO VISIBILITY.
       CURRENT SKY AND/OR WEATHER CONDITIONS ARE NOT AVAILABLE FOR
       CHILLICOTHE AND FARMINGTON.

MOZ001>031-035>038-043-044-053-054-231900-
...NORTHERN AND WESTERN MISSOURI...

CITY           SKY/WX    TMP DP  RH WIND       PRES   REMARKS
KANSAS CTY INT CLOUDY    64  58  80 SE9       30.19F
6HR MIN TEMP:  56; 6HR MAX TEMP:  65; 6HR PCP: TRACE;

KANSAS C DTWN  CLOUDY    67  57  70 S7        30.18F
6HR MIN TEMP:  58; 6HR MAX TEMP:  67; 6HR PCP: TRACE;

LEE`S SUMMIT   CLOUDY    66  57  72 SE9G17    30.20F
6HR MIN TEMP:  59; 6HR MAX TEMP:  67;

ST JOSEPH      CLOUDY    65  57  75 SE8       30.19S
6HR MIN TEMP:  57; 6HR MAX TEMP:  66; 6HR PCP: TRACE;

KIRKSVILLE     CLOUDY    69  54  58 S14       30.25F
6HR MIN TEMP:  58; 6HR MAX TEMP:  71; 6HR PCP: TRACE;


$$
MOZ066>068-077>081-088>096-101>105-231900-
...SOUTHWEST MISSOURI...

CITY           SKY/WX    TMP DP  RH WIND       PRES   REMARKS
SPRINGFIELD    CLOUDY    67  57  70 S15       30.23F
6HR MIN TEMP:  59; 6HR MAX TEMP:  67; 6HR PCP: TRACE;

JOPLIN         CLOUDY    67  60  78 SE10      30.18F
6HR MIN TEMP:  56; 6HR MAX TEMP:  67; 6HR PCP:  0.07;


$$
MOZ032>034-039>042-045>050-055>058-069>072-231900-
...CENTRAL MISSOURI...

CITY           SKY/WX    TMP DP  RH WIND       PRES   REMARKS
COLUMBIA       CLOUDY    72  54  53 S13       30.26F
6HR MIN TEMP:  59; 6HR MAX TEMP:  73;

JEFFERSON CITY CLOUDY    72  51  47 S12       30.25F
6HR MIN TEMP:  60; 6HR MAX TEMP:  72;

ROLLA          CLOUDY    70  53  54 S13       30.26F
6HR MIN TEMP:  59; 6HR MAX TEMP:  70;

SEDALIA        CLOUDY    67  57  70 SE10      30.25F
6HR MIN TEMP:  60; 6HR MAX TEMP:  69; 6HR PCP:  0.01;

WHITEMAN AFB   CLOUDY    66  57  72 S12       30.22F
OSAGE BEACH    CLOUDY    68  55  64 S9        30.26F

$$
MOZ051-052-059>065-231900-
...EAST CENTRAL MISSOURI...

CITY           SKY/WX    TMP DP  RH WIND       PRES   REMARKS
ST LOUIS INTL  PTSUNNY   77  49  37 SE14      30.29F
6HR MIN TEMP:  64; 6HR MAX TEMP:  78; 6HR PCP: TRACE;

SPIRIT OF STL  PTSUNNY  N/A N/A N/A VRB6G16   30.27F
ST CHARLES     PTSUNNY   76  49  38 S13       30.27F
6HR MIN TEMP:  62; 6HR MAX TEMP:  78;


$$
MOZ072>076-082>087-097>100-106>115-231900-
...SOUTH CENTRAL AND SOUTHEAST MISSOURI...

CITY           SKY/WX    TMP DP  RH WIND       PRES   REMARKS
CAPE GIRARDEAU MOSUNNY   75  51  43 S9        30.29F
6HR MIN TEMP:  60; 6HR MAX TEMP:  76;

FARMINGTON     PTSUNNY   73  52  46 SE9       30.33F
6HR MIN TEMP:  57; 6HR MAX TEMP:  73;

POPLAR BLUFF   MOSUNNY   75  51  43 SW5       30.28F
6HR MIN TEMP:  61; 6HR MAX TEMP:  76;

WEST PLAINS    LGT RAIN  63  54  72 S6        30.29F
6HR MIN TEMP:  58; 6HR MAX TEMP:  69; 6HR PCP: TRACE;


$$


USA.gov is the U.S. government's official web portal to all federal, state and local government web resources and services.